Home > Time Zones > World Clock > Weather > Yemen > Sana > Past weeks

Flag Weather past 2 weeks in Sana, Yemen

Now
73 °F

Passing clouds.


Feels Like: 76 °F
Forecast: 54 / 74 °F
Wind: 7 mph from North

Location: Sana'A Airport

Current Time: Nov 22, 2014 at 1:56:33 PM

Latest Report: Nov 22, 2014 at 1:00 PM


Visibility: N/A

Pressure: 30.33 "Hg

Humidity: 23%

Dew point: 34 °F

Location of SanaLocation

Historic Weather in Sana — Graph

°F

Sana temperature yesterday

Maximum temperature yesterday: 73 °F (at 4:00 PM)
Minimum temperature yesterday: 46 °F (at 5:00 AM)
Average temperature yesterday: 56 °F

Past Weeks' High & Low Weather Summary

 TemperatureHumidityPressure
High77 °F (Nov 17, 2:00 PM)71% (Nov 21, 7:00 AM)30.45 "Hg (Nov 21, 7:00 AM)
Low43 °F (Nov 11, 3:00 AM)15% (Nov 16, 1:00 PM)30.21 "Hg (Nov 12, 2:00 PM)
Average59 °F37%30.34 "Hg
* Reported Nov 7 12:00 Noon — Nov 22 12:00 Noon, Sana, Weather by CustomWeather, © 2014

Note: Actual official high and low records may vary slightly from our data, if they occured in-between our weather recording intervals... More about our weather records

Advertising

Sana weather history for previous 24 hours

 ConditionsComfort  
Time TempWeatherWind HumidityBarometerVisibility
12:00 PM
Nov 22
72 °FPassing clouds.6 mph23%30.36 "HgN/A
11:00 AM70 °FSunny.5 mph29%30.39 "Hg10 mi
10:00 AM68 °FSunny.5 mph35%30.42 "Hg10 mi
9:00 AM63 °FSunny.2 mph42%30.42 "Hg10 mi
8:00 AM57 °FSunny.2 mph48%30.42 "Hg10 mi
7:00 AM50 °FSunny.2 mph58%30.39 "Hg10 mi
6:00 AM48 °FClear.3 mph62%30.39 "Hg10 mi
5:00 AM48 °FClear.2 mph62%30.36 "Hg10 mi
4:00 AM48 °FClear.No wind62%30.36 "Hg10 mi
3:00 AM52 °FClear.5 mph58%30.36 "Hg10 mi
2:00 AM52 °FClear.3 mph58%30.39 "Hg10 mi
1:00 AM54 °FClear.2 mph51%30.39 "Hg10 mi
12:00 AM55 °FClear.5 mph47%30.39 "Hg10 mi
11:00 PM
Nov 21
57 °FPassing clouds.2 mph44%30.39 "HgN/A
9:00 PM59 °FPassing clouds.5 mph45%30.39 "HgN/A
8:00 PM63 °FPassing clouds.9 mph37%30.39 "HgN/A
7:00 PM63 °FPassing clouds.9 mph34%30.36 "HgN/A
6:00 PM64 °FPassing clouds.13 mph30%30.33 "HgN/A
5:00 PM68 °FPassing clouds.16 mph26%30.30 "HgN/A
4:00 PM73 °FPassing clouds.7 mph22%30.30 "HgN/A
Weather by CustomWeather, © 2014

See weather overviewHow to use our weather pages